Location: Palo Alto
(37.4420°N, 122.1420°W)
Time: 09:33:06
(UTC-07:00)

ISS - All Passes

Search period start: 02 July 2015 00:00
Search period end: 12 July 2015 00:00
Orbit: 398 x 403 km, 51.6° (Epoch: 02 July)

Date Brightness Start Highest point End Pass type
(mag) Time Alt. Az. Time Alt. Az. Time Alt. Az.
02 Jul - 08:05:19 10° SSE 08:06:51 13° SE 08:08:30 10° E daylight
02 Jul - 09:39:47 10° WSW 09:42:58 52° NW 09:46:09 10° NE daylight
02 Jul - 11:18:50 10° NW 11:19:58 11° NNW 11:21:04 10° N daylight
02 Jul - 14:33:36 10° N 14:35:15 13° NNE 14:36:58 10° NE daylight
02 Jul - 16:08:54 10° NW 16:12:08 77° NE 16:15:22 10° SE daylight
03 Jul - 08:46:15 10° SW 08:49:28 72° SE 08:52:43 10° NE daylight
03 Jul - 10:24:03 10° WNW 10:26:12 16° NNW 10:28:19 10° NNE daylight
03 Jul - 15:15:33 10° NW 15:18:36 37° NE 15:21:39 10° ESE daylight
03 Jul - 16:52:26 10° W 16:54:49 19° SW 16:57:08 10° S daylight
04 Jul - 07:53:09 10° SSW 07:56:03 31° SE 07:59:00 10° ENE daylight
04 Jul - 09:29:43 10° W 09:32:29 25° NNW 09:35:14 10° NNE daylight
04 Jul - 14:22:21 10° NNW 14:24:56 22° NNE 14:27:33 10° E daylight
04 Jul - 15:58:23 10° WNW 16:01:27 39° SW 16:04:29 10° SSE daylight
05 Jul - 07:00:45 10° SSE 07:02:42 15° SE 07:04:44 10° E daylight
05 Jul - 08:35:43 10° WSW 08:38:51 45° NW 08:41:59 10° NE daylight
05 Jul - 10:15:09 10° NNW 10:15:56 11° NNW 10:16:40 10° N daylight
05 Jul - 13:29:19 10° NNW 13:31:11 14° NNE 13:33:06 10° ENE daylight
05 Jul - 15:04:45 10° NW 15:08:00 90° SW 15:11:14 10° SE daylight
06 Jul - 07:42:04 10° SW 07:45:18 85° SE 07:48:34 10° NE daylight
06 Jul - 09:20:07 10° WNW 09:22:06 15° NNW 09:24:02 10° NNE daylight
06 Jul - 12:36:49 10° N 12:37:21 10° NNE 12:37:57 10° NNE daylight
06 Jul - 14:11:20 10° NW 14:14:27 43° NE 14:17:33 10° ESE daylight
06 Jul - 15:48:30 10° W 15:50:37 16° SW 15:52:39 10° S daylight
07 Jul - 06:48:49 10° SSW 06:51:50 37° SE 06:54:54 10° ENE daylight
07 Jul - 08:25:40 10° W 08:28:20 23° NNW 08:30:58 10° NNE daylight
07 Jul - 13:18:04 10° NNW 13:20:47 24° NNE 13:23:30 10° E daylight
07 Jul - 14:54:15 10° WNW 14:57:13 33° SW 15:00:10 10° SSE daylight
08 Jul - 05:56:11 10° S 05:58:26 18° SE 06:00:45 10° E daylight
08 Jul - 07:31:34 10° WSW 07:34:38 39° NW 07:37:43 10° NE daylight
08 Jul - 12:24:57 10° NNW 12:27:01 16° NNE 12:29:06 10° ENE daylight
08 Jul - 14:00:31 10° NW 14:03:45 76° SW 14:06:58 10° SE daylight
09 Jul - 06:37:48 10° SW 06:41:02 82° NW 06:44:18 10° NE daylight
09 Jul - 08:16:05 10° NW 08:17:53 14° NNW 08:19:38 10° N daylight
09 Jul - 11:32:10 10° N 11:33:09 11° NNE 11:34:10 10° NE daylight
09 Jul - 13:07:01 10° NW 13:10:12 49° NE 13:13:20 10° ESE daylight
09 Jul - 14:44:31 10° W 14:46:18 14° SW 14:47:59 10° SSW daylight
10 Jul - 05:44:25 10° SSW 05:47:31 44° SE 05:50:38 10° ENE daylight
10 Jul - 07:21:31 10° W 07:24:04 21° NNW 07:26:35 10° NNE daylight
10 Jul - 12:13:41 10° NNW 12:16:30 27° NNE 12:19:20 10° E daylight
10 Jul - 13:50:02 10° WNW 13:52:53 28° SW 13:55:42 10° SSE daylight
11 Jul - 04:51:35 10° S 04:54:03 21° SE 04:56:36 10° E visible
11 Jul - 06:27:18 10° WSW 06:30:19 34° NNW 06:33:20 10° NE daylight
11 Jul - 11:20:30 10° NNW 11:22:43 17° NNE 11:24:58 10° ENE daylight
11 Jul - 12:56:10 10° NW 12:59:23 64° SW 13:02:35 10° SE daylight
